| time (UTC) | temp F | wind direction | speed MPH | gust MPH | rain 1hr in | rain 24hr in | rain mn in | humidity % | barometer mb |
| 20260508111003 | 59 | 325 | 2.0 | 7.0 | 0.03 | 0.11 | 0.10 | 91 | 1014.7 |
| 20260508110506 | 60 | 343 | 3.0 | 7.0 | 0.04 | 0.11 | 0.10 | 90 | 1014.8 |
| 20260508110003 | 60 | 40 | 2.0 | 7.0 | 0.05 | 0.11 | 0.10 | 90 | 1014.8 |
| 20260508105715 | 59 | 58 | 1.0 | 7.0 | 0.05 | 0.11 | 0.10 | 90 | 1014.7 |
| 20260508105004 | 59 | 62 | 1.0 | 4.0 | 0.07 | 0.11 | 0.10 | 90 | 1015.0 |
| 20260508104503 | 59 | 139 | 1.0 | 2.0 | 0.09 | 0.11 | 0.10 | 90 | 1014.9 |
| 20260508104003 | 60 | 263 | 1.0 | 3.0 | 0.09 | 0.11 | 0.10 | 90 | 1015.4 |
| 20260508103504 | 60 | 284 | 1.0 | 3.0 | 0.10 | 0.11 | 0.10 | 90 | 1015.2 |
| 20260508103003 | 59 | 121 | 0.0 | 2.0 | 0.10 | 0.11 | 0.10 | 89 | 1015.5 |
| 20260508102504 | 59 | 271 | 0.0 | 3.0 | 0.10 | 0.12 | 0.10 | 89 | 1015.6 |
| 20260508102004 | 59 | 274 | 1.0 | 3.0 | 0.09 | 0.11 | 0.09 | 88 | 1015.7 |
| 20260508101503 | 59 | 263 | 2.0 | 3.0 | 0.08 | 0.10 | 0.08 | 88 | 1015.4 |
| 20260508101003 | 60 | 256 | 1.0 | 3.0 | 0.07 | 0.09 | 0.07 | 87 | 1015.6 |
| 20260508100504 | 60 | 258 | 2.0 | 3.0 | 0.06 | 0.08 | 0.06 | 86 | 1015.9 |
| 20260508100003 | 60 | 254 | 2.0 | 4.0 | 0.05 | 0.09 | 0.05 | 85 | 1015.9 |
| 20260508095716 | 60 | 254 | 2.0 | 4.0 | 0.05 | 0.10 | 0.05 | 84 | 1015.5 |
| 20260508095003 | 62 | 271 | 2.0 | 3.0 | 0.03 | 0.13 | 0.03 | 80 | 1015.8 |
| 20260508094503 | 62 | 272 | 2.0 | 3.0 | 0.01 | 0.14 | 0.01 | 78 | 1015.6 |
| 20260508094215 | 63 | 265 | 1.0 | 3.0 | 0.01 | 0.15 | 0.01 | 76 | 1015.6 |
| 20260508093503 | 63 | 249 | 1.0 | 2.0 | 0.00 | 0.15 | 0.00 | 73 | 1015.6 |
| 20260508093003 | 63 | 249 | 1.0 | 3.0 | 0.00 | 0.18 | 0.00 | 73 | 1015.7 |
| 20260508092714 | 63 | 249 | 1.0 | 3.0 | 0.00 | 0.21 | 0.00 | 74 | 1015.7 |
| 20260508092003 | 62 | 245 | 1.0 | 4.0 | 0.00 | 0.27 | 0.00 | 75 | 1015.6 |
| 20260508091503 | 62 | 245 | 1.0 | 4.0 | 0.00 | 0.29 | 0.00 | 77 | 1015.5 |
| 20260508091003 | 63 | 246 | 0.0 | 2.0 | 0.00 | 0.30 | 0.00 | 79 | 1015.5 |
| 20260508090503 | 63 | 240 | 0.0 | 2.0 | 0.00 | 0.36 | 0.00 | 81 | 1015.6 |
| 20260508090213 | 63 | 240 | 1.0 | 2.0 | 0.00 | 0.40 | 0.00 | 81 | 1015.3 |
| 20260508085503 | 62 | 233 | 1.0 | 3.0 | 0.00 | 0.52 | 0.00 | 82 | 1015.4 |
| 20260508085214 | 62 | 231 | 1.0 | 3.0 | 0.00 | 0.52 | 0.00 | 83 | 1015.4 |
| 20260508084504 | 62 | 241 | 0.0 | 3.0 | 0.00 | 0.52 | 0.00 | 84 | 1015.4 |
| 20260508084003 | 61 | 245 | 1.0 | 2.0 | 0.00 | 0.52 | 0.00 | 84 | 1015.3 |
| 20260508083713 | 61 | 249 | 1.0 | 3.0 | 0.00 | 0.52 | 0.00 | 84 | 1015.1 |
| 20260508083004 | 60 | 249 | 2.0 | 3.0 | 0.00 | 0.52 | 0.00 | 84 | 1015.3 |
| 20260508082714 | 60 | 247 | 2.0 | 3.0 | 0.00 | 0.52 | 0.00 | 85 | 1015.2 |
| 20260508082003 | 60 | 254 | 1.0 | 3.0 | 0.00 | 0.52 | 0.00 | 85 | 1015.1 |
| 20260508081503 | 60 | 254 | 1.0 | 2.0 | 0.00 | 0.52 | 0.00 | 85 | 1015.1 |
| 20260508081003 | 60 | 236 | 0.0 | 1.0 | 0.00 | 0.52 | 0.00 | 86 | 1015.0 |
| 20260508080716 | 60 | 241 | 0.0 | 3.0 | 0.00 | 0.52 | 0.00 | 86 | 1015.0 |
| 20260508080003 | 60 | 241 | 1.0 | 3.0 | 0.00 | 0.52 | 0.00 | 86 | 1015.0 |
| 20260508075503 | 60 | 236 | 1.0 | 2.0 | 0.00 | 0.52 | 0.00 | 86 | 1015.2 |
| 20260508075003 | 60 | 236 | 1.0 | 4.0 | 0.00 | 0.52 | 0.00 | 86 | 1015.1 |
| 20260508074718 | 59 | 237 | 2.0 | 4.0 | 0.00 | 0.52 | 0.00 | 86 | 1015.1 |
| 20260508074003 | 59 | 238 | 1.0 | 3.0 | 0.00 | 0.52 | 0.00 | 86 | 1015.1 |
| 20260508073719 | 59 | 240 | 1.0 | 2.0 | 0.00 | 0.52 | 0.00 | 86 | 1015.1 |
| 20260508073003 | 59 | 248 | 1.0 | 2.0 | 0.00 | 0.52 | 0.00 | 86 | 1014.7 |
| 20260508072503 | 59 | 249 | 0.0 | 1.0 | 0.00 | 0.52 | 0.00 | 86 | 1014.3 |
| 20260508072003 | 59 | 245 | 0.0 | 1.0 | 0.00 | 0.52 | 0.00 | 86 | 1014.4 |
| 20260508071504 | 59 | 191 | 0.0 | 1.0 | 0.00 | 0.52 | 0.00 | 86 | 1014.1 |
| 20260508071003 | 59 | 191 | 0.0 | 1.0 | 0.00 | 0.52 | 0.00 | 86 | 1014.2 |
| 20260508070503 | 59 | 218 | 0.0 | 1.0 | 0.00 | 0.52 | 0.00 | 86 | 1014.1 |
| 20260508070003 | 59 | 59 | 0.0 | 2.0 | 0.00 | 0.52 | 0.00 | 86 | 1014.2 |
| 20260508065509 | 59 | 335 | 2.0 | 6.0 | 0.00 | 0.52 | 0.00 | 86 | 1014.0 |
| 20260508065003 | 59 | 342 | 2.0 | 6.0 | 0.00 | 0.52 | 0.00 | 85 | 1014.0 |
| 20260508064503 | 59 | 344 | 3.0 | 6.0 | 0.00 | 0.52 | 0.00 | 85 | 1013.8 |
| 20260508064217 | 59 | 335 | 3.0 | 6.0 | 0.00 | 0.52 | 0.00 | 85 | 1013.7 |
| 20260508063503 | 59 | 292 | 2.0 | 4.0 | 0.00 | 0.52 | 0.00 | 85 | 1013.6 |
| 20260508063003 | 59 | 270 | 1.0 | 3.0 | 0.00 | 0.52 | 0.00 | 85 | 1013.9 |
| 20260508062504 | 59 | 251 | 0.0 | 2.0 | 0.00 | 0.52 | 0.00 | 85 | 1013.7 |
| 20260508062003 | 59 | 241 | 0.0 | 2.0 | 0.00 | 0.52 | 0.00 | 85 | 1014.2 |
| 20260508061503 | 59 | 236 | 0.0 | 1.0 | 0.00 | 0.52 | 0.00 | 85 | 1014.0 |
| 20260508061215 | 58 | 238 | 0.0 | 1.0 | 0.00 | 0.52 | 0.00 | 86 | 1014.2 |
| 20260508060503 | 58 | 280 | 1.0 | 2.0 | 0.00 | 0.52 | 0.00 | 87 | 1013.8 |
| 20260508060003 | 58 | 269 | 1.0 | 2.0 | 0.00 | 0.52 | 0.00 | 87 | 1013.5 |
| 20260508055503 | 57 | 248 | 1.0 | 2.0 | 0.00 | 0.52 | 0.00 | 88 | 1013.6 |
| 20260508055003 | 57 | 243 | 1.0 | 2.0 | 0.00 | 0.52 | 0.00 | 88 | 1013.6 |
| 20260508054503 | 57 | 242 | 1.0 | 2.0 | 0.00 | 0.52 | 0.00 | 88 | 1013.6 |
| 20260508054003 | 57 | 239 | 0.0 | 2.0 | 0.00 | 0.52 | 0.00 | 88 | 1013.8 |
| 20260508053715 | 57 | 247 | 0.0 | 1.0 | 0.00 | 0.52 | 0.00 | 89 | 1013.5 |
| 20260508053004 | 57 | 248 | 0.0 | 1.0 | 0.00 | 0.52 | 0.00 | 89 | 1013.3 |
| 20260508052503 | 57 | 243 | 0.0 | 1.0 | 0.00 | 0.52 | 0.00 | 89 | 1013.2 |
| 20260508052214 | 57 | 243 | 0.0 | 1.0 | 0.00 | 0.52 | 0.00 | 89 | 1013.1 |
| 20260508051503 | 57 | 250 | 1.0 | 3.0 | 0.00 | 0.52 | 0.00 | 89 | 1013.2 |
| 20260508051215 | 57 | 247 | 1.0 | 3.0 | 0.00 | 0.52 | 0.00 | 89 | 1013.1 |
| 20260508050503 | 56 | 244 | 1.0 | 3.0 | 0.00 | 0.52 | 0.00 | 89 | 1013.2 |
| 20260508050003 | 56 | 246 | 1.0 | 3.0 | 0.00 | 0.52 | 0.00 | 89 | 1013.2 |
| 20260508045504 | 56 | 242 | 1.0 | 3.0 | 0.00 | 0.52 | 0.00 | 89 | 1013.1 |
| 20260508045003 | 56 | 239 | 1.0 | 3.0 | 0.00 | 0.52 | 0.00 | 89 | 1013.2 |
| 20260508044503 | 56 | 238 | 2.0 | 4.0 | 0.00 | 0.52 | 0.00 | 89 | 1013.0 |
| 20260508044213 | 56 | 239 | 2.0 | 4.0 | 0.00 | 0.52 | 0.00 | 89 | 1013.2 |
| 20260508043504 | 56 | 241 | 2.0 | 4.0 | 0.00 | 0.52 | 0.00 | 90 | 1012.9 |
| 20260508043003 | 56 | 240 | 1.0 | 3.0 | 0.00 | 0.52 | 0.00 | 90 | 1012.9 |
| 20260508042717 | 56 | 245 | 1.0 | 4.0 | 0.00 | 0.52 | 0.00 | 90 | 1012.8 |
| 20260508042004 | 56 | 250 | 2.0 | 4.0 | 0.00 | 0.52 | 0.00 | 90 | 1013.0 |
| 20260508041504 | 56 | 245 | 2.0 | 4.0 | 0.00 | 0.52 | 0.00 | 90 | 1012.9 |
| 20260508041216 | 56 | 242 | 2.0 | 4.0 | 0.00 | 0.52 | 0.00 | 90 | 1013.0 |
| 20260508040503 | 56 | 244 | 1.0 | 3.0 | 0.00 | 0.52 | 0.00 | 91 | 1013.3 |
| 20260508040003 | 56 | 246 | 1.0 | 2.0 | 0.00 | 0.52 | 0.00 | 91 | 1013.1 |
| 20260508035503 | 56 | 243 | 1.0 | 2.0 | 0.00 | 0.52 | 0.00 | 91 | 1013.1 |
| 20260508035003 | 56 | 242 | 1.0 | 3.0 | 0.00 | 0.52 | 0.00 | 91 | 1013.2 |
| 20260508034503 | 56 | 242 | 1.0 | 3.0 | 0.00 | 0.52 | 0.00 | 91 | 1013.2 |
| 20260508034003 | 56 | 243 | 1.0 | 2.0 | 0.00 | 0.52 | 0.00 | 91 | 1013.1 |
| 20260508033503 | 56 | 244 | 1.0 | 2.0 | 0.00 | 0.52 | 0.00 | 91 | 1013.0 |
| 20260508033004 | 56 | 243 | 1.0 | 2.0 | 0.00 | 0.52 | 0.00 | 92 | 1013.0 |
| 20260508032504 | 56 | 242 | 1.0 | 2.0 | 0.00 | 0.52 | 0.00 | 92 | 1013.0 |
| 20260508032003 | 56 | 242 | 0.0 | 2.0 | 0.00 | 0.52 | 0.00 | 92 | 1012.5 |
| 20260508031503 | 56 | 243 | 0.0 | 2.0 | 0.00 | 0.52 | 0.00 | 92 | 1012.7 |
| 20260508031003 | 56 | 263 | 1.0 | 3.0 | 0.00 | 0.52 | 0.00 | 92 | 1012.8 |
| 20260508030503 | 56 | 271 | 2.0 | 3.0 | 0.00 | 0.52 | 0.00 | 92 | 1012.7 |
| 20260508030004 | 56 | 269 | 2.0 | 4.0 | 0.00 | 0.52 | 0.00 | 92 | 1013.0 |
| 20260508025503 | 56 | 259 | 1.0 | 4.0 | 0.00 | 0.52 | 0.00 | 92 | 1013.1 |
| 20260508025003 | 56 | 248 | 1.0 | 3.0 | 0.00 | 0.52 | 0.00 | 92 | 1013.2 |
| 20260508024716 | 56 | 244 | 1.0 | 2.0 | 0.00 | 0.52 | 0.00 | 92 | 1013.2 |
| 20260508024004 | 56 | 237 | 1.0 | 4.0 | 0.00 | 0.52 | 0.00 | 92 | 1013.4 |
| 20260508023503 | 56 | 239 | 2.0 | 4.0 | 0.00 | 0.52 | 0.00 | 92 | 1013.6 |
| 20260508023004 | 56 | 242 | 2.0 | 4.0 | 0.00 | 0.52 | 0.00 | 92 | 1013.5 |
| 20260508022503 | 56 | 242 | 2.0 | 3.0 | 0.00 | 0.52 | 0.00 | 92 | 1013.5 |
| 20260508022003 | 56 | 240 | 1.0 | 3.0 | 0.00 | 0.52 | 0.00 | 92 | 1013.3 |
| 20260508021503 | 56 | 245 | 1.0 | 3.0 | 0.00 | 0.52 | 0.00 | 92 | 1013.3 |
| 20260508021217 | 56 | 245 | 1.0 | 3.0 | 0.00 | 0.52 | 0.00 | 92 | 1013.1 |
| 20260508020503 | 56 | 241 | 2.0 | 3.0 | 0.00 | 0.52 | 0.00 | 92 | 1013.2 |
| 20260508020004 | 56 | 245 | 1.0 | 2.0 | 0.00 | 0.52 | 0.00 | 92 | 1013.7 |
| 20260508015503 | 56 | 246 | 1.0 | 3.0 | 0.00 | 0.52 | 0.00 | 92 | 1013.4 |
| 20260508015003 | 56 | 243 | 1.0 | 3.0 | 0.00 | 0.52 | 0.00 | 92 | 1013.6 |
| 20260508014503 | 56 | 247 | 1.0 | 3.0 | 0.00 | 0.52 | 0.00 | 92 | 1013.5 |
| 20260508014003 | 56 | 244 | 1.0 | 3.0 | 0.00 | 0.52 | 0.00 | 92 | 1013.5 |
| 20260508013713 | 56 | 241 | 1.0 | 3.0 | 0.00 | 0.52 | 0.00 | 92 | 1013.4 |
| 20260508013003 | 56 | 239 | 1.0 | 3.0 | 0.00 | 0.52 | 0.00 | 91 | 1013.7 |
| 20260508012503 | 56 | 244 | 1.0 | 2.0 | 0.00 | 0.52 | 0.00 | 91 | 1013.5 |
| 20260508012003 | 56 | 263 | 1.0 | 2.0 | 0.00 | 0.52 | 0.00 | 91 | 1013.8 |
| 20260508011503 | 57 | 265 | 2.0 | 3.0 | 0.00 | 0.52 | 0.00 | 91 | 1013.7 |
| 20260508011003 | 57 | 257 | 2.0 | 3.0 | 0.00 | 0.52 | 0.00 | 91 | 1013.6 |
| 20260508010503 | 57 | 252 | 1.0 | 3.0 | 0.00 | 0.52 | 0.00 | 91 | 1013.6 |
| 20260508010004 | 57 | 242 | 0.0 | 1.0 | 0.00 | 0.52 | 0.00 | 91 | 1013.9 |
| 20260508005504 | 57 | 244 | 0.0 | 1.0 | 0.00 | 0.52 | 0.00 | 91 | 1013.8 |
| 20260508005003 | 57 | 246 | 1.0 | 2.0 | 0.00 | 0.52 | 0.00 | 91 | 1014.0 |
| 20260508004504 | 57 | 245 | 1.0 | 2.0 | 0.00 | 0.52 | 0.00 | 91 | 1013.9 |
| 20260508004003 | 57 | 245 | 1.0 | 3.0 | 0.00 | 0.52 | 0.00 | 91 | 1014.1 |
| 20260508003503 | 57 | 247 | 1.0 | 3.0 | 0.00 | 0.52 | 0.00 | 91 | 1014.2 |
| 20260508003003 | 57 | 241 | 1.0 | 3.0 | 0.00 | 0.52 | 0.00 | 90 | 1014.2 |
| 20260508002504 | 57 | 233 | 1.0 | 3.0 | 0.00 | 0.52 | 0.00 | 90 | 1014.0 |
| 20260508002003 | 57 | 240 | 1.0 | 3.0 | 0.00 | 0.52 | 0.00 | 90 | 1014.2 |
| 20260508001504 | 57 | 245 | 1.0 | 3.0 | 0.00 | 0.52 | 0.00 | 90 | 1014.3 |
| 20260508001003 | 57 | 246 | 1.0 | 3.0 | 0.00 | 0.52 | 0.00 | 90 | 1014.3 |
| 20260508000716 | 58 | 245 | 0.0 | 3.0 | 0.00 | 0.52 | 0.00 | 90 | 1014.4 |
| 20260508000004 | 58 | 238 | 1.0 | 2.0 | 0.00 | 0.52 | 0.00 | 89 | 1014.8 |
| 20260507235717 | 57 | 238 | 1.0 | 2.0 | 0.00 | 0.52 | 0.00 | 89 | 1014.9 |
| 20260507235003 | 58 | 240 | 0.0 | 2.0 | 0.00 | 0.52 | 0.00 | 89 | 1015.0 |
| 20260507234503 | 58 | 238 | 1.0 | 2.0 | 0.00 | 0.52 | 0.00 | 89 | 1014.8 |
| 20260507234004 | 58 | 239 | 1.0 | 2.0 | 0.00 | 0.52 | 0.00 | 89 | 1014.9 |
| 20260507233503 | 58 | 242 | 1.0 | 3.0 | 0.00 | 0.52 | 0.00 | 89 | 1015.0 |
| 20260507233217 | 58 | 241 | 2.0 | 3.0 | 0.00 | 0.52 | 0.00 | 89 | 1014.8 |
| 20260507232715 | 58 | 239 | 2.0 | 3.0 | 0.00 | 0.52 | 0.00 | 89 | 1014.8 |
| 20260507232003 | 58 | 232 | 1.0 | 3.0 | 0.00 | 0.52 | 0.00 | 88 | 1014.8 |
| 20260507231503 | 58 | 231 | 1.0 | 2.0 | 0.00 | 0.52 | 0.00 | 88 | 1015.0 |
| 20260507231003 | 58 | 255 | 1.0 | 3.0 | 0.00 | 0.52 | 0.00 | 88 | 1015.0 |
| 20260507230503 | 58 | 270 | 1.0 | 3.0 | 0.00 | 0.52 | 0.00 | 88 | 1014.7 |
| 20260507230003 | 58 | 265 | 1.0 | 3.0 | 0.00 | 0.52 | 0.00 | 88 | 1014.9 |
| 20260507225504 | 58 | 251 | 1.0 | 3.0 | 0.00 | 0.52 | 0.00 | 88 | 1014.8 |
| 20260507225003 | 58 | 240 | 1.0 | 3.0 | 0.00 | 0.52 | 0.00 | 88 | 1015.1 |
| 20260507224503 | 58 | 258 | 1.0 | 4.0 | 0.00 | 0.52 | 0.00 | 87 | 1015.1 |
| 20260507224217 | 58 | 261 | 2.0 | 4.0 | 0.00 | 0.52 | 0.00 | 88 | 1015.2 |
| 20260507223715 | 58 | 260 | 2.0 | 3.0 | 0.00 | 0.52 | 0.00 | 87 | 1015.0 |
| 20260507223003 | 58 | 253 | 2.0 | 4.0 | 0.00 | 0.52 | 0.00 | 87 | 1015.0 |
| 20260507222503 | 58 | 246 | 1.0 | 4.0 | 0.00 | 0.52 | 0.00 | 88 | 1015.0 |
| 20260507222005 | 58 | 255 | 1.0 | 4.0 | 0.00 | 0.52 | 0.00 | 88 | 1014.8 |
| 20260507221504 | 58 | 257 | 3.0 | 6.0 | 0.00 | 0.52 | 0.00 | 87 | 1015.1 |
| 20260507221003 | 58 | 255 | 3.0 | 6.0 | 0.00 | 0.52 | 0.00 | 87 | 1014.8 |
| 20260507220503 | 59 | 248 | 2.0 | 4.0 | 0.00 | 0.52 | 0.00 | 87 | 1014.9 |
| 20260507220003 | 59 | 239 | 2.0 | 4.0 | 0.00 | 0.52 | 0.00 | 87 | 1014.9 |
| 20260507215503 | 59 | 240 | 2.0 | 4.0 | 0.00 | 0.52 | 0.52 | 86 | 1015.0 |
| 20260507215003 | 59 | 256 | 2.0 | 4.0 | 0.00 | 0.52 | 0.52 | 86 | 1014.9 |
| 20260507214503 | 59 | 273 | 2.0 | 4.0 | 0.00 | 0.52 | 0.52 | 85 | 1014.6 |
| 20260507214212 | 60 | 290 | 2.0 | 4.0 | 0.00 | 0.52 | 0.52 | 85 | 1014.6 |
| 20260507213503 | 60 | 323 | 3.0 | 6.0 | 0.00 | 0.52 | 0.52 | 85 | 1014.8 |
| 20260507213003 | 60 | 334 | 4.0 | 7.0 | 0.00 | 0.52 | 0.52 | 85 | 1014.8 |
| 20260507212503 | 60 | 340 | 4.0 | 9.0 | 0.00 | 0.52 | 0.52 | 85 | 1014.6 |
| 20260507212214 | 60 | 342 | 5.0 | 9.0 | 0.00 | 0.52 | 0.52 | 85 | 1014.7 |
| 20260507211503 | 59 | 344 | 4.0 | 8.0 | 0.00 | 0.52 | 0.52 | 86 | 1014.7 |
| 20260507211003 | 59 | 336 | 5.0 | 10.0 | 0.00 | 0.52 | 0.52 | 86 | 1014.8 |
| 20260507210713 | 59 | 340 | 6.0 | 10.0 | 0.00 | 0.52 | 0.52 | 86 | 1014.6 |
| 20260507210003 | 59 | 351 | 6.0 | 11.0 | 0.00 | 0.52 | 0.52 | 87 | 1014.5 |
| 20260507205714 | 60 | 351 | 7.0 | 11.0 | 0.00 | 0.52 | 0.52 | 87 | 1014.5 |
| 20260507205006 | 60 | 343 | 6.0 | 10.0 | 0.00 | 0.52 | 0.52 | 87 | 1014.4 |
| 20260507204503 | 60 | 334 | 5.0 | 8.0 | 0.00 | 0.52 | 0.52 | 87 | 1014.4 |
| 20260507204003 | 60 | 335 | 5.0 | 9.0 | 0.00 | 0.52 | 0.52 | 86 | 1014.4 |
| 20260507203716 | 60 | 333 | 6.0 | 9.0 | 0.00 | 0.52 | 0.52 | 86 | 1014.2 |
| 20260507203214 | 60 | 360 | 6.0 | 13.0 | 0.00 | 0.52 | 0.52 | 86 | 1014.3 |
| 20260507202503 | 60 | 42 | 5.0 | 13.0 | 0.00 | 0.52 | 0.52 | 85 | 1014.3 |
| 20260507202004 | 60 | 26 | 5.0 | 13.0 | 0.00 | 0.52 | 0.52 | 85 | 1014.4 |
| 20260507201503 | 60 | 353 | 5.0 | 10.0 | 0.00 | 0.52 | 0.52 | 85 | 1014.2 |
| 20260507201004 | 61 | 358 | 5.0 | 8.0 | 0.00 | 0.52 | 0.52 | 86 | 1014.0 |
| 20260507200503 | 61 | 25 | 5.0 | 10.0 | 0.00 | 0.52 | 0.52 | 86 | 1013.9 |
| 20260507200217 | 61 | 29 | 5.0 | 10.0 | 0.00 | 0.52 | 0.52 | 86 | 1014.1 |
| 20260507195715 | 61 | 32 | 5.0 | 10.0 | 0.00 | 0.52 | 0.52 | 85 | 1013.8 |
| 20260507195003 | 61 | 30 | 7.0 | 16.0 | 0.00 | 0.52 | 0.52 | 85 | 1013.6 |
| 20260507194716 | 61 | 34 | 7.0 | 16.0 | 0.00 | 0.52 | 0.52 | 85 | 1013.6 |
| 20260507194003 | 62 | 37 | 5.0 | 16.0 | 0.00 | 0.52 | 0.52 | 84 | 1013.7 |
| 20260507193504 | 62 | 48 | 3.0 | 10.0 | 0.00 | 0.52 | 0.52 | 84 | 1013.4 |
| 20260507193004 | 62 | 55 | 3.0 | 9.0 | 0.00 | 0.52 | 0.52 | 84 | 1013.6 |
| 20260507192503 | 62 | 48 | 3.0 | 9.0 | 0.00 | 0.52 | 0.52 | 83 | 1013.5 |
| 20260507192003 | 62 | 39 | 3.0 | 9.0 | 0.00 | 0.52 | 0.52 | 83 | 1013.4 |
| 20260507191503 | 63 | 33 | 3.0 | 8.0 | 0.00 | 0.52 | 0.52 | 83 | 1013.3 |
| 20260507191003 | 63 | 41 | 3.0 | 9.0 | 0.00 | 0.52 | 0.52 | 82 | 1013.1 |
| 20260507190714 | 63 | 49 | 3.0 | 9.0 | 0.00 | 0.52 | 0.52 | 82 | 1013.1 |
| 20260507190004 | 63 | 16 | 4.0 | 9.0 | 0.00 | 0.52 | 0.52 | 81 | 1012.9 |
| 20260507185715 | 63 | 8 | 5.0 | 9.0 | 0.00 | 0.52 | 0.52 | 80 | 1013.1 |
| 20260507185003 | 63 | 6 | 6.0 | 11.0 | 0.00 | 0.52 | 0.52 | 79 | 1013.1 |
| 20260507184503 | 63 | 30 | 4.0 | 11.0 | 0.00 | 0.52 | 0.52 | 80 | 1012.9 |
| 20260507184003 | 63 | 57 | 3.0 | 11.0 | 0.00 | 0.52 | 0.52 | 81 | 1012.7 |
| 20260507183503 | 64 | 42 | 5.0 | 13.0 | 0.00 | 0.52 | 0.52 | 81 | 1012.8 |
| 20260507183003 | 63 | 19 | 6.0 | 13.0 | 0.00 | 0.52 | 0.52 | 80 | 1012.7 |
| 20260507182503 | 64 | 7 | 6.0 | 13.0 | 0.00 | 0.52 | 0.52 | 80 | 1012.4 |
| 20260507182003 | 64 | 15 | 5.0 | 14.0 | 0.00 | 0.52 | 0.52 | 80 | 1012.5 |
| 20260507181503 | 64 | 13 | 7.0 | 17.0 | 0.00 | 0.52 | 0.52 | 80 | 1012.1 |
| 20260507181003 | 64 | 20 | 7.0 | 17.0 | 0.00 | 0.52 | 0.52 | 80 | 1012.2 |
| 20260507180503 | 64 | 23 | 7.0 | 17.0 | 0.00 | 0.52 | 0.52 | 78 | 1012.3 |
| 20260507180004 | 64 | 16 | 9.0 | 16.0 | 0.00 | 0.52 | 0.52 | 77 | 1012.0 |
| 20260507175503 | 64 | 23 | 8.0 | 16.0 | 0.00 | 0.52 | 0.52 | 78 | 1011.7 |
| 20260507175003 | 64 | 39 | 7.0 | 17.0 | 0.00 | 0.52 | 0.52 | 78 | 1011.9 |
| 20260507174503 | 64 | 28 | 7.0 | 17.0 | 0.00 | 0.52 | 0.52 | 78 | 1012.2 |
| 20260507174003 | 65 | 1 | 8.0 | 16.0 | 0.00 | 0.52 | 0.52 | 77 | 1011.8 |
| 20260507173713 | 66 | 355 | 8.0 | 16.0 | 0.00 | 0.52 | 0.52 | 78 | 1011.7 |
| 20260507173004 | 65 | 356 | 7.0 | 16.0 | 0.00 | 0.52 | 0.52 | 78 | 1011.9 |
| 20260507172503 | 65 | 344 | 5.0 | 10.0 | 0.00 | 0.52 | 0.52 | 79 | 1011.8 |
| 20260507172003 | 65 | 353 | 5.0 | 10.0 | 0.00 | 0.52 | 0.52 | 80 | 1011.7 |
| 20260507171715 | 65 | 350 | 5.0 | 10.0 | 0.00 | 0.52 | 0.52 | 79 | 1011.8 |
| 20260507171003 | 65 | 349 | 6.0 | 11.0 | 0.00 | 0.52 | 0.52 | 79 | 1011.8 |
| 20260507170715 | 65 | 357 | 5.0 | 11.0 | 0.00 | 0.52 | 0.52 | 78 | 1011.8 |
| 20260507170005 | 65 | 313 | 4.0 | 9.0 | 0.00 | 0.52 | 0.52 | 78 | 1011.7 |
| 20260507165503 | 66 | 305 | 4.0 | 9.0 | 0.00 | 0.52 | 0.52 | 78 | 1011.8 |
| 20260507165003 | 66 | 307 | 4.0 | 8.0 | 0.00 | 0.52 | 0.52 | 79 | 1011.8 |
| 20260507164503 | 66 | 284 | 4.0 | 8.0 | 0.00 | 0.52 | 0.52 | 78 | 1011.7 |
| 20260507164215 | 66 | 283 | 3.0 | 6.0 | 0.00 | 0.52 | 0.52 | 78 | 1011.7 |
| 20260507163503 | 65 | 350 | 3.0 | 7.0 | 0.00 | 0.52 | 0.52 | 79 | 1011.8 |
| 20260507163003 | 65 | 15 | 3.0 | 7.0 | 0.00 | 0.52 | 0.52 | 79 | 1011.7 |
| 20260507162503 | 65 | 14 | 3.0 | 7.0 | 0.00 | 0.52 | 0.52 | 79 | 1012.1 |
| 20260507162003 | 65 | 32 | 2.0 | 7.0 | 0.00 | 0.52 | 0.52 | 79 | 1011.9 |
| 20260507161503 | 64 | 46 | 2.0 | 7.0 | 0.00 | 0.52 | 0.52 | 79 | 1011.5 |
| 20260507161213 | 64 | 20 | 3.0 | 8.0 | 0.00 | 0.52 | 0.52 | 79 | 1011.6 |
| 20260507160503 | 65 | 339 | 4.0 | 9.0 | 0.00 | 0.52 | 0.52 | 79 | 1011.9 |
| 20260507160003 | 65 | 68 | 3.0 | 9.0 | 0.00 | 0.52 | 0.52 | 79 | 1011.8 |
| 20260507155717 | 64 | 50 | 3.0 | 9.0 | 0.00 | 0.52 | 0.52 | 79 | 1012.0 |
| 20260507155215 | 65 | 23 | 4.0 | 10.0 | 0.00 | 0.52 | 0.52 | 78 | 1011.7 |
| 20260507154503 | 65 | 36 | 3.0 | 7.0 | 0.00 | 0.52 | 0.52 | 77 | 1011.9 |
| 20260507154003 | 65 | 21 | 3.0 | 8.0 | 0.00 | 0.52 | 0.52 | 75 | 1011.6 |
| 20260507153714 | 65 | 2 | 4.0 | 9.0 | 0.00 | 0.52 | 0.52 | 74 | 1011.7 |
| 20260507153003 | 65 | 360 | 5.0 | 13.0 | 0.00 | 0.52 | 0.52 | 73 | 1011.5 |
| 20260507152715 | 65 | 357 | 5.0 | 13.0 | 0.00 | 0.52 | 0.52 | 73 | 1011.7 |
| 20260507152003 | 65 | 27 | 5.0 | 10.0 | 0.00 | 0.52 | 0.52 | 73 | 1011.2 |
| 20260507151716 | 65 | 36 | 5.0 | 11.0 | 0.00 | 0.52 | 0.52 | 73 | 1011.8 |
| 20260507151003 | 65 | 35 | 4.0 | 13.0 | 0.00 | 0.52 | 0.52 | 74 | 1011.6 |
| 20260507150717 | 64 | 47 | 3.0 | 13.0 | 0.00 | 0.52 | 0.52 | 73 | 1011.6 |
| 20260507150004 | 64 | 58 | 4.0 | 9.0 | 0.00 | 0.52 | 0.52 | 74 | 1011.8 |
| 20260507145503 | 64 | 49 | 3.0 | 9.0 | 0.00 | 0.52 | 0.52 | 75 | 1011.9 |
| 20260507145004 | 64 | 359 | 3.0 | 7.0 | 0.00 | 0.52 | 0.52 | 76 | 1011.9 |
| 20260507144503 | 64 | 329 | 4.0 | 7.0 | 0.00 | 0.52 | 0.52 | 77 | 1012.0 |
| 20260507144217 | 64 | 334 | 4.0 | 7.0 | 0.00 | 0.52 | 0.52 | 77 | 1011.8 |
| 20260507143503 | 63 | 359 | 2.0 | 8.0 | 0.00 | 0.52 | 0.52 | 78 | 1011.9 |
| 20260507143003 | 63 | 330 | 4.0 | 8.0 | 0.00 | 0.52 | 0.52 | 79 | 1011.7 |
| 20260507142503 | 63 | 332 | 5.0 | 10.0 | 0.00 | 0.52 | 0.52 | 81 | 1011.7 |
| 20260507142004 | 63 | 342 | 5.0 | 10.0 | 0.00 | 0.52 | 0.52 | 82 | 1011.9 |
| 20260507141503 | 63 | 1 | 5.0 | 10.0 | 0.01 | 0.52 | 0.52 | 82 | 1011.9 |
| 20260507141003 | 63 | 9 | 6.0 | 11.0 | 0.01 | 0.52 | 0.52 | 82 | 1011.8 |
| 20260507140504 | 63 | 14 | 5.0 | 11.0 | 0.01 | 0.52 | 0.52 | 82 | 1011.9 |
| 20260507140003 | 63 | 19 | 4.0 | 11.0 | 0.01 | 0.52 | 0.52 | 83 | 1011.8 |
| 20260507135713 | 64 | 48 | 4.0 | 11.0 | 0.01 | 0.52 | 0.52 | 83 | 1011.7 |
| 20260507135003 | 63 | 86 | 5.0 | 15.0 | 0.01 | 0.52 | 0.52 | 83 | 1011.9 |
| 20260507134503 | 64 | 72 | 5.0 | 15.0 | 0.01 | 0.52 | 0.52 | 83 | 1011.8 |
| 20260507134003 | 63 | 85 | 4.0 | 11.0 | 0.01 | 0.52 | 0.52 | 83 | 1011.8 |
| 20260507133715 | 63 | 63 | 4.0 | 11.0 | 0.01 | 0.52 | 0.52 | 84 | 1012.0 |
| 20260507133003 | 62 | 79 | 4.0 | 10.0 | 0.01 | 0.52 | 0.52 | 85 | 1011.9 |
| 20260507132503 | 62 | 82 | 3.0 | 8.0 | 0.01 | 0.52 | 0.52 | 86 | 1011.7 |
| 20260507132003 | 62 | 85 | 4.0 | 9.0 | 0.01 | 0.52 | 0.52 | 85 | 1011.7 |
| 20260507131503 | 62 | 106 | 4.0 | 9.0 | 0.00 | 0.51 | 0.51 | 86 | 1011.9 |
| 20260507131005 | 63 | 100 | 4.0 | 11.0 | 0.00 | 0.51 | 0.51 | 85 | 1012.1 |
| 20260507130503 | 62 | 92 | 4.0 | 11.0 | 0.00 | 0.51 | 0.51 | 84 | 1012.3 |
| 20260507130004 | 62 | 65 | 3.0 | 11.0 | 0.00 | 0.51 | 0.51 | 83 | 1012.2 |
| 20260507125503 | 62 | 74 | 5.0 | 15.0 | 0.00 | 0.51 | 0.51 | 82 | 1012.3 |
| 20260507125003 | 62 | 78 | 5.0 | 17.0 | 0.00 | 0.51 | 0.51 | 81 | 1012.4 |
| 20260507124715 | 63 | 64 | 6.0 | 17.0 | 0.00 | 0.51 | 0.51 | 80 | 1012.3 |
| 20260507124003 | 63 | 59 | 5.0 | 17.0 | 0.00 | 0.51 | 0.51 | 79 | 1012.2 |
| 20260507123503 | 63 | 60 | 5.0 | 14.0 | 0.00 | 0.51 | 0.51 | 78 | 1012.3 |
| 20260507123004 | 63 | 59 | 6.0 | 15.0 | 0.00 | 0.51 | 0.51 | 78 | 1012.2 |
| 20260507122717 | 63 | 53 | 6.0 | 17.0 | 0.00 | 0.51 | 0.51 | 79 | 1012.2 |
| 20260507122004 | 63 | 42 | 7.0 | 22.0 | 0.00 | 0.51 | 0.51 | 84 | 1012.7 |
| 20260507121503 | 63 | 41 | 7.0 | 21.0 | 0.00 | 0.51 | 0.51 | 83 | 1012.2 |
| 20260507121003 | 63 | 32 | 8.0 | 22.0 | 0.00 | 0.51 | 0.51 | 82 | 1012.4 |
| 20260507120504 | 64 | 56 | 7.0 | 22.0 | 0.00 | 0.51 | 0.51 | 80 | 1012.7 |
| 20260507120005 | 65 | 59 | 6.0 | 19.0 | 0.00 | 0.51 | 0.51 | 77 | 1012.8 |
| 20260507115503 | 66 | 43 | 5.0 | 14.0 | 0.00 | 0.51 | 0.51 | 72 | 1012.5 |
| 20260507115003 | 65 | 53 | 4.0 | 10.0 | 0.00 | 0.51 | 0.51 | 71 | 1012.3 |
| 20260507114503 | 65 | 70 | 3.0 | 10.0 | 0.00 | 0.51 | 0.51 | 73 | 1012.5 |
| 20260507114213 | 64 | 58 | 3.0 | 9.0 | 0.00 | 0.51 | 0.51 | 74 | 1012.5 |
| 20260507113503 | 64 | 20 | 3.0 | 9.0 | 0.00 | 0.51 | 0.51 | 78 | 1012.5 |
| 20260507113214 | 64 | 347 | 4.0 | 10.0 | 0.00 | 0.51 | 0.51 | 79 | 1012.7 |
| 20260507112503 | 62 | 9 | 3.0 | 10.0 | 0.01 | 0.51 | 0.51 | 84 | 1012.6 |
| 20260507112003 | 62 | 43 | 2.0 | 8.0 | 0.01 | 0.51 | 0.51 | 86 | 1012.6 |
| 20260507111504 | 62 | 339 | 2.0 | 8.0 | 0.01 | 0.51 | 0.51 | 88 | 1012.8 |